Regional Weather Roundup
Issued by NWS Upton, NY

Current Version | Previous Version | Graphics & Text | Print | Product List | Glossary Off
Versions: 1 2 3 4 5 6 7 8 9 10 11 12 13 14 15 16 17 18 19 20 21 22 23 24 25 26 27 28 29 30 31 32 33 34 35 36 37 38 39 40 41 42 43 44 45 46 47 48 49 50
538 ASUS41 KOKX 182308 RWROKX REGIONAL WEATHER ROUNDUP NATIONAL WEATHER SERVICE NEW YORK NY 700 PM EDT WED OCT 18 2017 NOTE: "FAIR" INDICATES FEW OR NO CLOUDS BELOW 12,000 FEET WITH NO SIGNIFICANT WEATHER AND/OR OBSTRUCTIONS TO VISIBILITY. NYZ071-072-176-178-NJZ106-104-190000- NEW YORK CITY METRO AREA CITY SKY/WX TMP DP RH WIND PRES REMARKS Central Park CLEAR 65 49 56 VRB3 30.29R Bronx Bot Gard N/A 63 48 59 E1 30.28R LaGuardia APRT CLEAR 66 51 58 S9 30.26R Kennedy INTL CLEAR 63 55 75 S13 30.28R Breezy Point N/A 63 N/A N/A S9 N/A Newark/Liberty CLEAR 66 46 48 SW8 30.26R Teterboro CLEAR 66 50 56 S5 30.25R $$ NYZ177-179-078>081-190000- LONG ISLAND NEW YORK CITY SKY/WX TMP DP RH WIND PRES REMARKS Jones Beach N/A 63 N/A N/A SW6 N/A Matinecock PT N/A 64 N/A N/A S6 N/A Farmingdale CLEAR 62 53 72 SW8 30.28R MacArthur/ISP CLEAR 59 53 80 SW5 30.28R Shirley CLEAR 61 53 75 S5 30.28R Mt Sinai Harb N/A N/A N/A N/A S8 N/A Westhampton CLEAR 59 50 72 SW3 30.29R East Hampton FAIR 57 52 83 SW3 30.27S Montauk N/A 61 55 81 SW5 30.29R $$ NYZ052-065-067-190000- HUDSON VALLEY CITY SKY/WX TMP DP RH WIND PRES REMARKS White Plains CLEAR 60 48 64 S5 30.26R Larchmont Harb N/A 64 N/A N/A S12 N/A Croton On Huds N/A 63 N/A N/A CALM N/A Newburgh CLEAR 61 52 72 CALM 30.26R Montgomery CLEAR 56 51 84 CALM 30.24R Poughkeepsie CLEAR 57 49 74 CALM 30.24R Albany PTCLDY 60 48 64 CALM 30.23R $$ NJZ001-105-106-008-010-013-015-019>022-104-190000- NEW JERSEY CITY SKY/WX TMP DP RH WIND PRES REMARKS Newark/Liberty CLEAR 66 46 48 SW8 30.26R Teterboro CLEAR 66 50 56 S5 30.25R Caldwell CLEAR 63 49 60 CALM 30.27R Somerville CLEAR 57 49 74 CALM 30.25R Linden FAIR 66 46 47 CALM 30.27R Perth Amboy N/A 66 N/A N/A SW7 N/A Sussex CLEAR 58 49 72 CALM 30.26R Andover N/A 55 50 83 CALM 30.27R Trenton CLEAR 65 46 50 CALM 30.27R Millville CLEAR 56 52 86 CALM 30.31R Atlantic City CLEAR 60 49 66 S5 30.30R Wrightstown CLEAR 57 49 74 S5 30.26R Toms River N/A 55 51 86 CALM 30.30R Belmar CLEAR 61 51 70 S5 30.29R $$ PAZ047>061-062-071-190000- EASTERN PENNSYLVANIA CITY SKY/WX TMP DP RH WIND PRES REMARKS Philadelphia PTCLDY 67 45 45 SW10 30.29R Allentown CLEAR 62 44 51 SW5 30.27R Scranton CLEAR 59 44 57 S3 30.27R $$ CTZ002-004>006-009-010-012-RIZ004-006-007-MAZ004-011-015-190000- SOUTHERN NEW ENGLAND IN CT CITY SKY/WX TMP DP RH WIND PRES REMARKS Bradley INTL CLEAR 58 49 72 W5 30.25R Hartford CLEAR 62 50 64 S6 30.25R Danbury CLEAR 57 49 74 SW3 30.28R Wtrbury/Oxford CLEAR 59 49 69 S3 30.28R Norwalk Harbor N/A 66 N/A N/A S10 N/A Bridgeport CLEAR 65 53 65 S9 30.26R Meriden CLEAR 57 48 72 CALM 30.26R New Haven CLEAR 56 48 74 CALM 30.27R Chester FAIR 59 50 72 CALM 30.27R Groton CLEAR 58 53 84 SW7 30.27R Wilimantic CLEAR 59 49 69 CALM 30.26R IN RI CITY SKY/WX TMP DP RH WIND PRES REMARKS Providence CLEAR 61 48 62 SW7 30.26R Block Island CLEAR 61 54 77 SW10 30.28R Westerly CLEAR 59 53 80 CALM 30.27R IN MA CITY SKY/WX TMP DP RH WIND PRES REMARKS Boston PTCLDY 67 40 37 SW6 30.25R Worcester CLEAR 58 43 57 W8 30.26R Westfield CLEAR 56 47 71 CALM 30.24R Provincetown CLEAR 53 47 79 SE6 30.27R Nantucket CLEAR 56 56 100 SW6 30.28R $$ ANZ330-335-338-340-345-350-353-355-190000- COASTAL MARINE OBSERVATIONS STATION/POSITION TIME SKY/WX TEMP WIND PRES VSBY WAVE AIR SEA DIR/SP/G HT/PER (UTC) (F) (DEG/KT/KT) (MB) (MI) (FT/S) NY HARB ENTRANCE 2150 65 65 200/ 14/ 16 1024.1 2/10 20 S FIRE ISLAND 2150 63 64 230/ 14/ 16 1025.0 3/10 GREAT SOUTH BAY 2200 63 62 230/ 8/ 10 N/A 15 E BARNEGAT LI 2230 66 N/A 3/10 HUDSON CANYON 2150 63 66 250/ 14/ 16 1025.2 3/10 KINGS POINT 2230 65 66 210/ 9/ 11 1025.4 EXECUTION ROCKS 2215 68 170/ 10/ 14 N/A WESTERN LI SOUND 2149 68 210/ 12/ 14 N/A 0 CENTRAL LI SOUND NOT AVBL EASTERN LI SOUND NOT AVBL ROBBINS REEF 2236 67 180/ 8/ 9 1025.2 $$ >>>>>>>>>>>>>>>>>>>>>>>>>>>> KEY <<<<<<<<<<<<<<<<<<<<<<<<<<< > < > SKY/WX - Sky Condition/Present Weather < > TMP - Temperature in Fahrenheit < > DP - Dew Point in Fahrenheit < > RH - Relative Humidity in Percent < > WIND - Direction (from) and Speed in MPH < > PRES - Mean Sea Level Pressure (inches of Hg) < > WCI - Wind Chill Index < > VSB - VISIBILITY IN MILES < > HX - HEAT INDEX < > TC - TEMPERATURE IN CELSIUS < > VRB - VARIABLE WIND DIRECTION < > < >>>>>>>>>>>>>>>>>>>>>>>>>>>> KEY <<<<<<<<<<<<<<<<<<<<<<<<<<<

USA.gov is the U.S. government's official web portal to all federal, state and local government web resources and services.